STARLINK-5567, 55377

Orbit data source: Space-Track

STARLINK-5567, 55377 is a payload satellite owned by SpaceX/Seattle (US) in LEO that was launched on Thu, 26 Jan 2023 UTC via an FALCON 9 launch vehicle from the Air Force Eastern Test Range (AFETR). Payload-class satellites include a variety of spacecraft equipped with specific instruments for various scientific and technological missions. These include communications satellites like Starlink; space stations such as the ISS; scientific satellites like the Hubble; Earth observation satellites from companies like Planet Labs, Umbra, and HawkEye 360; GPS; miniature CubeSats for education and research; and military/defense satellites.

Loading next visibility...
Identifier
55377, 2023-013AY
Orbit
LEO
Country
Flag of USUS
Related business
Manufacturer
SpaceX/Seattle
Mission
Operational Commercial Communications
Bus & Motor
STARLINK, Unknown motor
Mass
305 kg wet, ~290 kg dry
Launch date (UTC)
2023-01-26 (3 years ago)
Launch vehicle
FALCON 9
Launch site
Air Force Eastern Test Range (AFETR)
Object type
Payload
Rocket body
Debris
Shape & HBR
Box + 1 Pan, 10.1 m
Radar Cross Section
13.562 m², Large (>1 m²)

Expand to show TLE details & history
Last TLE update: 2 days ago

TLE from 2 days ago
0 STARLINK-5567
1 55377U 23013AY  26170.97544127 -.00000064  00000-0  71989-5 0  9991
2 55377  43.0024 100.6911 0000860 260.1720  99.9035 15.27575558187148
Epoch: 2026-06-19T23:24Z
TLE epoch observation values (Epoch: 2026-06-19T23:24:38.125Z)
Latitude
-0°
Longitude
-158.66446°
Altitude
482.94 km
Speed
7.626 km/s
True Right ascension
06h 42m 45s
True Declination
0° 00' 00"
Sunlit
Object was in daylight at epoch
Visualization orbit readout
Latitude
Unknown
Longitude
Unknown
Altitude
Unknown
Speed
Unknown
Apparent Right ascension
Unknown
Apparent Declination
Unknown
Sunlit
N/A
Visualization observer readout
Local Sidereal Time
21:43:14
Azimuth
Unknown
Elevation
Unknown
Doppler factor
Unknown
Orbital elements
Apogee altitude
485.597 km
Perigee altitude
484.417 km
Semi-major axis
6,863.144 km
Eccentricity
0.00009
Inclination
43.0024°
RAAN
100.6911°
Arg. of periapsis
260.172°
True anomaly
99.91321°
Mean anomaly
99.9035°
Eccentric anomaly
99.90835°
Mean motion
3.81732 °/min
Orbital period
94.31 mins
BSTAR
0.0000071989
Loading maneuver chart data...
Computing Atmospheric mass density...
Loading historical data...
Loading historical data...
Loading historical data...
Loading historical data...
Loading historical data...
Loading historical data...
Loading historical data...

Documentation

Showing up to 5 results
|